TimeCST,TemperatureF,Dew PointF,Humidity,Sea Level PressureIn,VisibilityMPH,Wind Direction,Wind SpeedMPH,Gust SpeedMPH,PrecipitationIn,Events,Conditions,WindDirDegrees,DateUTC
12:15 AM,19.4,15.8,86,30.40,10.0,WSW,8.1,-,N/A,,Clear,250,2013-01-18 06:15:00
12:35 AM,21.2,14.0,74,30.41,10.0,WSW,6.9,-,N/A,,Clear,240,2013-01-18 06:35:00
12:55 AM,21.2,15.8,80,30.42,10.0,WSW,9.2,-,N/A,,Clear,240,2013-01-18 06:55:00
1:15 AM,21.2,17.6,86,30.42,10.0,WSW,6.9,-,N/A,,Clear,250,2013-01-18 07:15:00
1:35 AM,19.4,15.8,86,30.44,10.0,WSW,6.9,-,N/A,,Clear,250,2013-01-18 07:35:00
1:55 AM,21.2,15.8,80,30.43,10.0,WSW,6.9,-,N/A,,Clear,250,2013-01-18 07:55:00
2:15 AM,19.4,15.8,86,30.44,10.0,WSW,8.1,-,N/A,,Clear,250,2013-01-18 08:15:00
2:35 AM,21.2,17.6,86,30.44,10.0,WSW,6.9,-,N/A,,Clear,240,2013-01-18 08:35:00
2:55 AM,19.4,15.8,86,30.44,10.0,SW,5.8,-,N/A,,Clear,230,2013-01-18 08:55:00
3:15 AM,19.4,14.0,80,30.43,10.0,SW,4.6,-,N/A,,Clear,230,2013-01-18 09:15:00
3:35 AM,19.4,15.8,86,30.42,10.0,SW,5.8,-,N/A,,Clear,220,2013-01-18 09:35:00
3:55 AM,19.4,15.8,86,30.42,10.0,SW,5.8,-,N/A,,Clear,220,2013-01-18 09:55:00
4:15 AM,19.4,14.0,80,30.42,10.0,SW,5.8,-,N/A,,Clear,220,2013-01-18 10:15:00
4:35 AM,19.4,15.8,86,30.44,10.0,SW,6.9,-,N/A,,Clear,230,2013-01-18 10:35:00
4:55 AM,19.4,15.8,86,30.43,10.0,SSW,6.9,-,N/A,,Clear,210,2013-01-18 10:55:00
5:15 AM,19.4,14.0,80,30.43,10.0,SW,5.8,-,N/A,,Clear,220,2013-01-18 11:15:00
5:35 AM,21.2,15.8,80,30.44,10.0,SSW,5.8,-,N/A,,Clear,210,2013-01-18 11:35:00
5:55 AM,19.4,15.8,86,30.44,10.0,SSW,6.9,-,N/A,,Clear,200,2013-01-18 11:55:00
6:15 AM,19.4,15.8,86,30.44,10.0,SW,6.9,-,N/A,,Clear,220,2013-01-18 12:15:00
6:35 AM,21.2,15.8,80,30.43,10.0,SSW,5.8,-,N/A,,Clear,210,2013-01-18 12:35:00
6:55 AM,21.2,17.6,86,30.44,10.0,SW,5.8,-,N/A,,Clear,230,2013-01-18 12:55:00
7:15 AM,21.2,14.0,74,30.44,10.0,SW,5.8,-,N/A,,Clear,220,2013-01-18 13:15:00
7:35 AM,21.2,17.6,86,30.44,10.0,SW,6.9,-,N/A,,Clear,220,2013-01-18 13:35:00
7:55 AM,23.0,17.6,80,30.44,10.0,SSW,8.1,-,N/A,,Clear,210,2013-01-18 13:55:00
8:15 AM,24.8,19.4,80,30.44,10.0,SSW,8.1,-,N/A,,Clear,200,2013-01-18 14:15:00
8:35 AM,26.6,17.6,69,30.44,10.0,SSW,8.1,-,N/A,,Clear,200,2013-01-18 14:35:00
8:55 AM,26.6,19.4,74,30.45,10.0,SSW,10.4,-,N/A,,Clear,210,2013-01-18 14:55:00
9:15 AM,28.4,19.4,69,30.44,10.0,SSW,11.5,-,N/A,,Clear,210,2013-01-18 15:15:00
9:55 AM,30.2,21.2,69,30.44,10.0,SW,15.0,18.4,N/A,,Clear,220,2013-01-18 15:55:00
10:15 AM,30.2,21.2,69,30.43,10.0,SW,16.1,-,N/A,,Clear,220,2013-01-18 16:15:00
10:35 AM,32.0,21.2,64,30.41,10.0,SSW,18.4,-,N/A,,Clear,210,2013-01-18 16:35:00
10:55 AM,33.8,21.2,60,30.40,10.0,SSW,18.4,23.0,N/A,,Clear,210,2013-01-18 16:55:00
11:15 AM,33.8,21.2,60,30.38,10.0,SSW,20.7,26.5,N/A,,Clear,210,2013-01-18 17:15:00
11:35 AM,33.8,23.0,65,30.37,10.0,SSW,20.7,25.3,N/A,,Clear,210,2013-01-18 17:35:00
11:55 AM,35.6,21.2,56,30.35,10.0,SW,18.4,-,N/A,,Clear,220,2013-01-18 17:55:00
12:15 PM,35.6,23.0,60,30.34,10.0,SSW,21.9,-,N/A,,Clear,200,2013-01-18 18:15:00
12:35 PM,35.6,21.2,56,30.32,10.0,SSW,19.6,26.5,N/A,,Clear,200,2013-01-18 18:35:00
12:55 PM,37.4,23.0,56,30.30,10.0,SW,18.4,-,N/A,,Clear,220,2013-01-18 18:55:00
1:15 PM,37.4,21.2,52,30.29,10.0,SSW,17.3,-,N/A,,Clear,200,2013-01-18 19:15:00
1:35 PM,37.4,21.2,52,30.28,10.0,SW,19.6,28.8,N/A,,Clear,220,2013-01-18 19:35:00
1:55 PM,37.4,21.2,52,30.26,10.0,SSW,23.0,27.6,N/A,,Clear,200,2013-01-18 19:55:00
2:15 PM,37.4,21.2,52,30.26,10.0,SSW,23.0,28.8,N/A,,Clear,210,2013-01-18 20:15:00
2:35 PM,37.4,21.2,52,30.25,10.0,SSW,18.4,24.2,N/A,,Clear,210,2013-01-18 20:35:00
2:55 PM,39.2,21.2,49,30.23,10.0,SSW,18.4,26.5,N/A,,Clear,210,2013-01-18 20:55:00
3:15 PM,39.2,21.2,49,30.22,10.0,SSW,17.3,24.2,N/A,,Clear,210,2013-01-18 21:15:00
3:35 PM,37.4,21.2,52,30.20,10.0,SSW,21.9,-,N/A,,Clear,200,2013-01-18 21:35:00
3:55 PM,37.4,21.2,52,30.19,10.0,SSW,20.7,25.3,N/A,,Clear,200,2013-01-18 21:55:00
4:15 PM,37.4,21.2,52,30.18,10.0,SSW,17.3,21.9,N/A,,Clear,200,2013-01-18 22:15:00
4:35 PM,35.6,21.2,56,30.18,10.0,SSW,17.3,20.7,N/A,,Clear,200,2013-01-18 22:35:00
4:55 PM,35.6,21.2,56,30.17,10.0,SSW,18.4,21.9,N/A,,Clear,200,2013-01-18 22:55:00
5:15 PM,35.6,21.2,56,30.17,10.0,SSW,18.4,24.2,N/A,,Clear,200,2013-01-18 23:15:00
5:35 PM,35.6,21.2,56,30.17,10.0,South,19.6,28.8,N/A,,Clear,190,2013-01-18 23:35:00
5:55 PM,35.6,21.2,56,30.16,10.0,SSW,20.7,-,N/A,,Clear,200,2013-01-18 23:55:00
6:15 PM,35.6,21.2,56,30.15,10.0,SSW,19.6,-,N/A,,Clear,200,2013-01-19 00:15:00
6:35 PM,35.6,21.2,56,30.15,10.0,SSW,20.7,24.2,N/A,,Clear,200,2013-01-19 00:35:00
6:55 PM,37.4,21.2,52,30.14,10.0,SSW,20.7,27.6,N/A,,Clear,200,2013-01-19 00:55:00
7:15 PM,37.4,21.2,52,30.13,10.0,SSW,21.9,-,N/A,,Clear,200,2013-01-19 01:15:00
7:35 PM,37.4,21.2,52,30.12,10.0,SSW,24.2,31.1,N/A,,Clear,200,2013-01-19 01:35:00
7:55 PM,37.4,21.2,52,30.10,10.0,SSW,26.5,33.4,N/A,,Clear,200,2013-01-19 01:55:00
8:15 PM,37.4,23.0,56,30.10,10.0,SSW,27.6,39.1,N/A,,Clear,210,2013-01-19 02:15:00
8:35 PM,37.4,24.8,60,30.09,10.0,SSW,25.3,34.5,N/A,,Clear,200,2013-01-19 02:35:00
8:55 PM,37.4,23.0,56,30.08,10.0,SSW,27.6,34.5,N/A,,Clear,210,2013-01-19 02:55:00
9:35 PM,37.4,24.8,60,30.08,10.0,SSW,27.6,34.5,N/A,,Clear,210,2013-01-19 03:35:00
9:55 PM,37.4,24.8,60,30.08,10.0,SW,24.2,33.4,N/A,,Clear,220,2013-01-19 03:55:00
10:15 PM,37.4,24.8,60,30.08,10.0,SSW,24.2,36.8,N/A,,Clear,210,2013-01-19 04:15:00
10:35 PM,39.2,24.8,56,30.08,10.0,SW,24.2,32.2,N/A,,Clear,220,2013-01-19 04:35:00
10:55 PM,37.4,24.8,60,30.08,10.0,SW,21.9,32.2,N/A,,Clear,220,2013-01-19 04:55:00
11:15 PM,37.4,24.8,60,30.08,10.0,SW,20.7,27.6,N/A,,Clear,220,2013-01-19 05:15:00
11:35 PM,37.4,24.8,60,30.07,10.0,SW,19.6,25.3,N/A,,Clear,220,2013-01-19 05:35:00
11:55 PM,37.4,24.8,60,30.08,10.0,SW,23.0,29.9,N/A,,Clear,220,2013-01-19 05:55:00